Location: *
(46.3500°N, 10.9000°E)
Time: 08:35:18
(UTC+00:00)

Altair - Visible Passes

Search period start: 20 April 2021 00:00
Search period end: 30 April 2021 00:00
Orbit: 1501 x 1683 km, 47.2° (Epoch: 19 April)

Date Brightness Start Highest point End Pass type
(mag) Time Alt. Az. Time Alt. Az. Time Alt. Az.
20 Apr 9.2 03:00:08 10° S 03:07:12 22° SE 03:14:07 10° E visible
21 Apr 9.3 02:35:29 10° S 02:42:09 20° SE 02:48:41 10° E visible
22 Apr 9.3 02:10:55 10° SSE 02:17:07 19° SE 02:23:11 10° E visible
23 Apr 9.3 01:46:27 10° SSE 01:52:05 17° SE 01:57:37 10° E visible
24 Apr 9.3 01:22:06 10° SSE 01:27:03 15° SE 01:31:56 10° E visible
24 Apr 8.3 03:20:38 10° SSW 03:30:02 48° SE 03:39:08 10° ENE visible
25 Apr 9.3 00:57:57 10° SSE 01:02:02 13° ESE 01:06:04 10° E visible
25 Apr 8.3 02:55:42 10° SSW 03:04:54 45° SE 03:13:55 10° ENE visible
26 Apr 9.4 00:34:10 10° SE 00:37:01 11° ESE 00:39:51 10° ESE visible
26 Apr 8.3 02:31:53 14° SSW 02:39:47 42° SE 02:48:42 10° ENE visible
27 Apr 8.4 02:08:01 18° SSW 02:14:40 39° SE 02:23:28 10° ENE visible
28 Apr 8.4 01:44:06 22° S 01:49:34 37° SE 01:58:13 10° ENE visible
29 Apr 8.4 01:20:07 25° S 01:24:28 34° SE 01:32:58 10° ENE visible
29 Apr 7.7 03:18:20 10° WSW 03:28:21 75° SSE 03:38:03 10° ENE visible
